Pagrindinis puslapis
METAR-TAF:

METAR-TAF

Oro uostai :

Lycksele, Švedija

platuma: 64-32-51N, ilguma: 018-43-03E, Aukštis: 211 m

Dabartinis oras

Ataskaita buvo paskelbta 16 minutes, ne 06:20 UTC
Vėjas 4 kt iš Rytų
Temperatūra 7°C
Drėgmė 45%
Slėgis 1018 hPa
Matomumas 10 km arba daugiau

METAR: ESNL 200620Z AUTO 09004KT 9999 BKN059/// 07/M04 Q1018

Laikas: 08:36 (06:36 UTC)


TAF: trūkstamas

Orai ataskaitas ir orų prognozės (METAR, TAF).

turimą stotys yra geltonos ir raudonos taškus žemėlapyje.

Perkelti pele per norėdami pamatyti stoties vardą.

Tada spustelėkite, norėdami matyti oro stebėjimo ir prognozės.

Norėdami pakeisti žemėlapį: spustelėkite ant žalios mygtukų su juodo kryžiaus žemyn,; žalią mygtuką su brūkšneliu, jei norite nutolinti; arba žalių rodyklių gretimoms žemėlapius.


METAR-TAF: